Weather History for TIST - October, 2012

Change the Weather History Date:

Friday, October 26, 2012

  Actual Average Record
Temperature  
Mean Temperature 84 °F 82 °F  
Max Temperature 86 °F 88 °F 93 °F (1997)
Min Temperature 82 °F 76 °F 71 °F (2007)
Degree Days  
Heating Degree Days 0 0  
Month to date heating degree days 0 0  
Since 1 July heating degree days 0 0  
Cooling Degree Days 19 17  
Month to date cooling degree days 478 464  
Year to date cooling degree days 4807 5023  
Growing Degree Days 34 (Base 50)    
Moisture  
Dew Point 78 °F    
Average Humidity 84    
Maximum Humidity 88    
Minimum Humidity 79    
Precipitation  
Precipitation 0.02 in 0.19 in 3.80 in (1978)
Month to date precipitation 4.54 4.49  
Year to date precipitation 27.69 30.22  
Sea Level Pressure  
Sea Level Pressure 29.84 in    
Wind  
Wind Speed 13 mph (SSE)    
Max Wind Speed 20 mph    
Max Gust Speed 23 mph    
Visibility 10 miles    
Events Rain    
T = Trace of Precipitation, MM = Missing Value Source: NWS Daily Summary

Daily Weather History Graph

Daily Weather History Graph

Search for Another Location

Airport or City:

Trip Planner

Search our weather history database for the weather conditions in past years. The results will help you decide how hot, cold, wet, or windy it might be!

Date:

Astronomy

Oct. 26, 2012 Rise Set
Actual Time 6:17 AM AST 5:50 PM AST
Civil Twilight 5:54 AM AST 6:12 PM AST
Nautical Twilight 5:29 AM AST 6:38 PM AST
Astronomical Twilight 5:03 AM AST 7:03 PM AST
Moon 3:46 PM AST 3:31 AM AST
Length of Visible Light 12h 17m
Length of Day
11h 32m
Waxing Gibbous, 91% of the Moon is Illuminated
Oct 26
Waxing Gibbous
Oct 29
Full
Nov 6
Last Quarter
Nov 13
New
Nov 20
First Quarter

Hourly Weather History & Observations

Time (AST) Temp. Heat Index Dew Point Humidity Pressure Visibility Wind Dir Wind Speed Gust Speed Precip Events Conditions
12:53 AM 82.0 °F 90.2 °F 77.0 °F 85% 29.85 in 10.0 mi SSE 15.0 mph - N/A   Partly Cloudy
1:53 AM 82.0 °F 89.4 °F 75.9 °F 82% 29.83 in 10.0 mi SE 13.8 mph - N/A   Partly Cloudy
2:53 AM 82.0 °F 90.2 °F 77.0 °F 85% 29.81 in 10.0 mi SE 15.0 mph - N/A   Scattered Clouds
3:14 AM 82.4 °F 90.9 °F 77.0 °F 84% 29.81 in 10.0 mi SE 12.7 mph - N/A   Mostly Cloudy
3:29 AM 82.4 °F 90.9 °F 77.0 °F 84% 29.81 in 10.0 mi SE 13.8 mph - N/A   Mostly Cloudy
3:53 AM 82.0 °F 90.2 °F 77.0 °F 85% 29.81 in 10.0 mi SE 10.4 mph - N/A   Mostly Cloudy
4:33 AM 82.4 °F 92.4 °F 78.8 °F 89% 29.81 in 10.0 mi SE 12.7 mph - 0.00 in   Mostly Cloudy
4:43 AM 82.4 °F 90.9 °F 77.0 °F 84% 29.81 in 10.0 mi SE 10.4 mph - 0.00 in   Scattered Clouds
4:53 AM 82.0 °F 90.2 °F 77.0 °F 85% 29.82 in 10.0 mi SE 12.7 mph - 0.00 in   Scattered Clouds
5:53 AM 82.0 °F 91.0 °F 78.1 °F 88% 29.83 in 10.0 mi SSE 15.0 mph - 0.00 in Rain Light Rain
6:53 AM 82.9 °F 92.8 °F 78.1 °F 85% 29.85 in 10.0 mi SSE 13.8 mph - 0.00 in   Scattered Clouds
7:53 AM 82.9 °F 92.8 °F 78.1 °F 85% 29.86 in 10.0 mi SSE 12.7 mph - N/A   Partly Cloudy
8:53 AM 82.9 °F 92.8 °F 78.1 °F 85% 29.87 in 10.0 mi SSE 12.7 mph - N/A   Mostly Cloudy
9:01 AM 82.4 °F 92.4 °F 78.8 °F 89% 29.87 in 10.0 mi SE 15.0 mph - N/A   Mostly Cloudy
9:53 AM 82.9 °F 91.8 °F 77.0 °F 82% 29.88 in 10.0 mi SE 10.4 mph - N/A   Scattered Clouds
10:09 AM 82.4 °F 92.4 °F 78.8 °F 89% 29.87 in 10.0 mi SE 13.8 mph - 0.00 in   Mostly Cloudy
10:24 AM 82.4 °F 92.4 °F 78.8 °F 89% 29.87 in 10.0 mi SE 15.0 mph - 0.00 in   Mostly Cloudy
10:53 AM 84.0 °F 94.8 °F 78.1 °F 82% 29.86 in 10.0 mi SSE 16.1 mph - 0.00 in   Partly Cloudy
11:21 AM 84.2 °F 96.1 °F 78.8 °F 84% 29.86 in 10.0 mi SSE 15.0 mph - N/A   Mostly Cloudy
11:44 AM 84.2 °F 96.1 °F 78.8 °F 84% 29.85 in 10.0 mi SE 16.1 mph - N/A   Scattered Clouds
11:53 AM 84.0 °F 94.8 °F 78.1 °F 82% 29.85 in 10.0 mi SE 17.3 mph - N/A   Scattered Clouds
12:41 PM 84.2 °F 96.1 °F 78.8 °F 84% 29.84 in 10.0 mi SE 19.6 mph - N/A   Mostly Cloudy
12:53 PM 84.9 °F 96.6 °F 78.1 °F 80% 29.84 in 10.0 mi SSE 18.4 mph - N/A   Scattered Clouds
1:53 PM 84.0 °F 94.8 °F 78.1 °F 82% 29.82 in 10.0 mi SSE 16.1 mph - 0.00 in Rain Light Rain
2:53 PM 84.9 °F 96.6 °F 78.1 °F 80% 29.81 in 10.0 mi SE 13.8 mph - 0.00 in   Partly Cloudy
3:53 PM 84.0 °F 94.8 °F 78.1 °F 82% 29.81 in 9.0 mi SSE 11.5 mph - 0.00 in Rain Light Rain
4:17 PM 82.4 °F 92.4 °F 78.8 °F 89% 29.82 in 6.0 mi SSE 11.5 mph - 0.02 in Rain Light Rain
4:53 PM 82.9 °F 93.8 °F 79.0 °F 88% 29.83 in 10.0 mi SSE 12.7 mph - 0.02 in   Overcast
5:31 PM 82.4 °F 92.4 °F 78.8 °F 89% 29.83 in 10.0 mi SSE 12.7 mph - N/A   Mostly Cloudy
5:53 PM 82.9 °F 92.8 °F 78.1 °F 85% 29.84 in 10.0 mi SSE 11.5 mph - N/A   Overcast
6:53 PM 82.9 °F 93.8 °F 79.0 °F 88% 29.84 in 10.0 mi South 11.5 mph - N/A   Clear
7:53 PM 82.9 °F 92.8 °F 78.1 °F 85% 29.85 in 10.0 mi SSE 12.7 mph - N/A   Partly Cloudy
8:53 PM 82.9 °F 93.8 °F 79.0 °F 88% 29.85 in 10.0 mi South 12.7 mph - N/A   Partly Cloudy
9:53 PM 82.9 °F 93.8 °F 79.0 °F 88% 29.87 in 10.0 mi South 12.7 mph - N/A   Mostly Cloudy
10:53 PM 82.9 °F 93.8 °F 79.0 °F 88% 29.86 in 10.0 mi SSE 15.0 mph - N/A   Partly Cloudy
11:53 PM 82.9 °F 93.8 °F 79.0 °F 88% 29.86 in 10.0 mi South 10.4 mph - N/A   Partly Cloudy